This is the latest recevied weather packets stored in our database for station/object W4WYD-2. If no packets are shown the sender has not sent any weather packets the latest 10 day(s).
| Time | Temp. | Humidity | Pressure | Rain* | Wind** | Luminosity | Snow |
|---|---|---|---|---|---|---|---|
| 1787766774 | 21.11° C | 99% | 1017.2 hPa | 0 mm | - | 93 W/m² | - |
| 1787766473 | 21.11° C | 99% | 1017 hPa | 0 mm | - | 79 W/m² | - |
| 1787766168 | 21.11° C | 99% | 1017.3 hPa | 1.78 mm | - | 64 W/m² | - |
| 1787765863 | 21.11° C | 99% | 1017.5 hPa | 3.05 mm | - | 51 W/m² | - |
| 1787765560 | 21.11° C | 99% | 1017.5 hPa | 4.32 mm | - | 39 W/m² | - |
| 1787765260 | 21.11° C | 99% | 1017.6 hPa | 3.05 mm | - | 30 W/m² | - |
| 1787764959 | 21.11° C | 99% | 1018.1 hPa | 3.05 mm | - | 27 W/m² | - |
| 1787764655 | 21.11° C | 99% | 1017.8 hPa | 3.05 mm | - | 25 W/m² | - |
| 1787764349 | 20.56° C | 99% | 1018.4 hPa | 4.83 mm | - | 24 W/m² | - |
| 1787764046 | 21.11° C | 98% | 1018.1 hPa | 4.83 mm | - | 22 W/m² | - |
| 1787763740 | 20.56° C | 98% | 1018.4 hPa | 4.83 mm | - | 19 W/m² | - |
| 1787763436 | 20.56° C | 98% | 1018.2 hPa | 4.83 mm | - | 17 W/m² | - |
| 1787763135 | 20.56° C | 98% | 1018.3 hPa | 3.05 mm | - | 15 W/m² | - |
| 1787762830 | 20.56° C | 98% | 1018.4 hPa | 3.05 mm | - | 13 W/m² | - |
| 1787762525 | 21.11° C | 98% | 1018.8 hPa | 3.05 mm | - | 12 W/m² | - |
| 1787762222 | 21.11° C | 98% | 1019 hPa | 0 mm | - | 12 W/m² | - |
| 1787761917 | 21.11° C | 98% | 1018.9 hPa | 1.78 mm | - | 10 W/m² | - |
| 1787761612 | 21.11° C | 98% | 1018.8 hPa | 1.78 mm | - | 9 W/m² | - |
| 1787761307 | 20.56° C | 98% | 1018.6 hPa | 0 mm | - | 9 W/m² | - |
| 1787761005 | 20.56° C | 98% | 1018.9 hPa | 1.27 mm | - | 8 W/m² | - |
| 1787760704 | 20.56° C | 98% | 1019.2 hPa | 3.05 mm | - | 8 W/m² | - |
| 1787760399 | 20.56° C | 97% | 1018.9 hPa | 7.87 mm | - | 7 W/m² | - |
| 1787760094 | 21.11° C | 97% | 1018.8 hPa | 19.81 mm | - | 6 W/m² | - |
| 1787759791 | 21.11° C | 97% | 1019 hPa | 28.7 mm | - | 5 W/m² | - |
| 1787759487 | 21.11° C | 97% | 1018.9 hPa | 29.46 mm | - | 5 W/m² | - |
* Rain latest hour (hover to see other rain measurements)
** Current wind speed in m/s (hover to see current wind gust speed)